QPF
0.00 0.01 0.01 0.02 0.03 0.03 0.03 0.03 0.05 0.06 0.05 0.04 0.06 0.06 0.06 0.07 0.08 0.09 0.09 0.08 0.07 0.05 0.05 0.07 0.05 0.05 0.05 0.04 0.05 0.06 0.06 0.07 0.05 0.03 0.03 0.03 0.05 0.06 0.07 0.08 0.08 0.08 0.09
0.01 0.02 0.02 0.02 0.03 0.03 0.02 0.03 0.04 0.04 0.04 0.04 0.05 0.06 0.07 0.07 0.08 0.07 0.06 0.07 0.08 0.08 0.10 0.12 0.10 0.09 0.08 0.06 0.06 0.06 0.05 0.04 0.04 0.04 0.03 0.03 0.04 0.03 0.04 0.05 0.06 0.06 0.08
0.02 0.02 0.02 0.02 0.03 0.03 0.03 0.03 0.04 0.03 0.03 0.03 0.03 0.04 0.06 0.07 0.06 0.05 0.04 0.05 0.07 0.10 0.12 0.13 0.13 0.11 0.09 0.08 0.07 0.07 0.06 0.05 0.06 0.05 0.04 0.03 0.03 0.03 0.04 0.05 0.06 0.07 0.08
0.01 0.02 0.02 0.02 0.03 0.04 0.05 0.04 0.04 0.03 0.02 0.02 0.03 0.04 0.07 0.08 0.07 0.06 0.07 0.07 0.08 0.11 0.16 0.18 0.17 0.14 0.12 0.11 0.10 0.09 0.09 0.08 0.07 0.08 0.07 0.08 0.09 0.08 0.08 0.08 0.08 0.07 0.07
0.02 0.02 0.02 0.02 0.02 0.04 0.07 0.05 0.04 0.03 0.03 0.02 0.02 0.03 0.05 0.07 0.08 0.10 0.10 0.09 0.09 0.13 0.17 0.19 0.19 0.17 0.15 0.12 0.11 0.10 0.10 0.10 0.09 0.09 0.09 0.10 0.11 0.12 0.12 0.11 0.10 0.09 0.08
0.02 0.02 0.03 0.03 0.03 0.04 0.04 0.02 0.02 0.02 0.03 0.05 0.05 0.06 0.07 0.07 0.10 0.10 0.06 0.06 0.08 0.12 0.15 0.15 0.14 0.12 0.10 0.09 0.08 0.07 0.07 0.08 0.09 0.08 0.07 0.06 0.06 0.06 0.06 0.06 0.07 0.07 0.09
0.04 0.04 0.04 0.04 0.04 0.04 0.03 0.02 0.03 0.04 0.04 0.06 0.07 0.06 0.07 0.09 0.11 0.07 0.05 0.04 0.05 0.05 0.04 0.05 0.05 0.04 0.04 0.04 0.06 0.05 0.04 0.03 0.03 0.03 0.03 0.03 0.03 0.03 0.03 0.04 0.04 0.05 0.07
0.05 0.05 0.06 0.05 0.05 0.05 0.06 0.06 0.06 0.06 0.06 0.06 0.06 0.05 0.06 0.06 0.06 0.04 0.03 0.03 0.02 0.02 0.01 0.01 0.01 0.01 0.02 0.03 0.03 0.02 0.02 0.02 0.02 0.02 0.02 0.01 0.01 0.01 0.01 0.02 0.03 0.04 0.05
0.05 0.05 0.07 0.06 0.05 0.06 0.06 0.07 0.06 0.05 0.05 0.04 0.04 0.04 0.04 0.05 0.06 0.05 0.04 0.02 0.02 0.02 0.01 0.01 0.01 0.01 0.02 0.03 0.03 0.03 0.02 0.02 0.03 0.03 0.03 0.02 0.02 0.02 0.02 0.02 0.02 0.03 0.03
0.06 0.05 0.05 0.05 0.05 0.06 0.07 0.06 0.04 0.03 0.04 0.03 0.03 0.03 0.02 0.03 0.03 0.03 0.02 0.02 0.01 0.01 0.01 0.01 0.01 0.01 0.01 0.02 0.02 0.04 0.03 0.02 0.03 0.04 0.04 0.04 0.04 0.04 0.04 0.03 0.03 0.03 0.04
0.06 0.04 0.04 0.04 0.04 0.05 0.05 0.04 0.03 0.04 0.03 0.03 0.03 0.02 0.01 0.01 0.01 0.01 0.01 0.01 0.01 0.01 0.01 0.00 0.00 0.00 0.01 0.03 0.04 0.04 0.03 0.03 0.03 0.03 0.03 0.03 0.03 0.04 0.04 0.04 0.05 0.05 0.05
0.05 0.04 0.03 0.03 0.03 0.03 0.03 0.03 0.04 0.04 0.03 0.03 0.03 0.02 0.02 0.02 0.02 0.02 0.01 0.01 0.01 0.01 0.01 0.01 0.01 0.01 0.03 0.03 0.03 0.03 0.04 0.03 0.03 0.03 0.02 0.02 0.03 0.03 0.04 0.06 0.08 0.09 0.09
0.04 0.03 0.02 0.02 0.02 0.01 0.01 0.02 0.03 0.02 0.02 0.02 0.02 0.02 0.03 0.03 0.02 0.02 0.02 0.02 0.01 0.01 0.01 0.01 0.01 0.01 0.02 0.02 0.02 0.03 0.03 0.02 0.02 0.02 0.02 0.03 0.04 0.05 0.06 0.07 0.07 0.08 0.09
0.03 0.03 0.02 0.02 0.02 0.02 0.02 0.02 0.03 0.02 0.01 0.01 0.01 0.01 0.02 0.03 0.02 0.02 0.02 0.01 0.01 0.01 0.01 0.01 0.01 0.01 0.01 0.01 0.01 0.01 0.01 0.02 0.03 0.05 0.07 0.08 0.10 0.09 0.08 0.07 0.07 0.08 0.07
0.03 0.02 0.02 0.02 0.02 0.03 0.03 0.05 0.05 0.03 0.02 0.02 0.01 0.01 0.01 0.02 0.03 0.02 0.02 0.02 0.02 0.02 0.02 0.02 0.01 0.01 0.01 0.00 0.00 0.01 0.02 0.03 0.05 0.06 0.07 0.07 0.07 0.06 0.05 0.05 0.05 0.05 0.04
0.02 0.02 0.02 0.03 0.03 0.02 0.02 0.02 0.02 0.02 0.03 0.03 0.01 0.01 0.01 0.01 0.01 0.01 0.01 0.01 0.01 0.01 0.01 0.01 0.01 0.01 0.01 0.01 0.01 0.02 0.03 0.03 0.04 0.04 0.03 0.03 0.03 0.03 0.03 0.03 0.03 0.03 0.03
0.04 0.04 0.04 0.03 0.03 0.03 0.01 0.01 0.01 0.01 0.01 0.01 0.01 0.01 0.01 0.01 0.01 0.01 0.01 0.01 0.01 0.01 0.01 0.01 0.01 0.01 0.01 0.01 0.01 0.01 0.01 0.02 0.02 0.02 0.02 0.03 0.03 0.03 0.03 0.03 0.03 0.03 0.04
0.04 0.04 0.03 0.02 0.02 0.02 0.01 0.01 0.00 0.00 0.00 0.01 0.01 0.01 0.01 0.01 0.01 0.01 0.01 0.01 0.01 0.01 0.01 0.01 0.00 0.00 0.00 0.00 0.00 0.00 0.00 0.01 0.01 0.01 0.02 0.02 0.02 0.02 0.03 0.03 0.03 0.03 0.03
0.05 0.04 0.03 0.02 0.01 0.01 0.01 0.01 0.00 0.00 0.00 0.00 0.00 0.00 0.00 0.00 0.01 0.01 0.01 0.01 0.01 0.00 0.00 0.00 0.00 0.00 0.00 0.00 0.00 0.00 0.00 0.00 0.00 0.00 0.00 0.01 0.01 0.01 0.02 0.02 0.02 0.02 0.01
0.05 0.03 0.02 0.01 0.01 0.01 0.01 0.01 0.01 0.01 0.01 0.00 0.00 0.00 0.00 0.01 0.01 0.02 0.01 0.00 0.00 0.00 0.00 0.00 0.00 0.00 0.00 0.00 0.00 0.00 0.00 0.00 0.00 0.00 0.01 0.01 0.01 0.01 0.01 0.01 0.01 0.01 0.01
0.03 0.02 0.01 0.01 0.01 0.02 0.02 0.02 0.01 0.01 0.01 0.00 0.00 0.00 0.00 0.01 0.01 0.00 0.00 0.00 0.00 0.00 0.00 0.00 0.00 0.00 0.00 0.00 0.00 0.00 0.00 0.00 0.00 0.01 0.01 0.01 0.00 0.00 0.00 0.01 0.01 0.01 0.01
0.04 0.03 0.02 0.02 0.01 0.01 0.01 0.01 0.00 0.00 0.00 0.00 0.00 0.00 0.00 0.00 0.00 0.00 0.00 0.00 0.00 0.00 0.00 0.00 0.00 0.00 0.00 0.00 0.00 0.00 0.00 0.00 0.00 0.00 0.00 0.00 0.00 0.00 0.00 0.00 0.00 0.01 0.01
0.05 0.04 0.03 0.02 0.01 0.01 0.01 0.00 0.00 0.00 0.00 0.00 0.00 0.00 0.00 0.00 0.00 0.00 0.00 0.00 0.00 0.00 0.00 0.00 0.00 0.00 0.00 0.00 0.00 0.00 0.00 0.00 0.00 0.00 0.00 0.00 0.00 0.00 0.00 0.00 0.00 0.00 0.00
0.04 0.03 0.02 0.02 0.01 0.01 0.01 0.01 0.00 0.00 0.00 0.00 0.00 0.00 0.01 0.01 0.00 0.00 0.00 0.00 0.00 0.00 0.00 0.00 0.00 0.00 0.00 0.00 0.00 0.00 0.00 0.00 0.00 0.00 0.00 0.00 0.00 0.00 0.00 0.00 0.00 0.00 0.00
0.03 0.03 0.02 0.02 0.02 0.01 0.01 0.01 0.01 0.01 0.01 0.01 0.01 0.01 0.00 0.00 0.00 0.00 0.00 0.00 0.00 0.00 0.00 0.00 0.00 0.00 0.00 0.00 0.00 0.00 0.00 0.00 0.00 0.00 0.00 0.00 0.00 0.00 0.00 0.00 0.00 0.00 0.00
0.03 0.03 0.02 0.02 0.02 0.01 0.01 0.01 0.01 0.01 0.01 0.01 0.01 0.00 0.00 0.00 0.00 0.00 0.00 0.00 0.00 0.00 0.00 0.00 0.00 0.00 0.00 0.00 0.00 0.00 0.00 0.00 0.00 0.00 0.00 0.00 0.00 0.00 0.00 0.00 0.00 0.00 0.00
MSLP
1016.17 1016.24 1016.29 1016.31 1016.28 1016.24 1016.21 1016.23 1016.32 1016.51 1016.78 1017.12 1017.50 1017.88 1018.24 1018.54 1018.78 1018.98 1019.15 1019.30 1019.46 1019.63 1019.80 1019.97 1020.12 1020.24 1020.32 1020.38 1020.43 1020.50 1020.62 1020.81 1021.07 1021.41 1021.80 1022.20 1022.57 1022.88 1023.11 1023.25 1023.31 1023.30 1023.26
1016.33 1016.42 1016.47 1016.49 1016.46 1016.43 1016.40 1016.42 1016.51 1016.68 1016.93 1017.26 1017.61 1017.99 1018.34 1018.67 1018.96 1019.21 1019.45 1019.67 1019.89 1020.09 1020.28 1020.43 1020.54 1020.59 1020.59 1020.57 1020.54 1020.56 1020.65 1020.83 1021.12 1021.51 1021.96 1022.44 1022.90 1023.30 1023.61 1023.81 1023.92 1023.94 1023.92
1016.48 1016.59 1016.66 1016.70 1016.69 1016.68 1016.67 1016.71 1016.81 1016.99 1017.23 1017.54 1017.88 1018.24 1018.59 1018.93 1019.24 1019.54 1019.83 1020.11 1020.38 1020.63 1020.84 1020.99 1021.07 1021.08 1021.02 1020.93 1020.84 1020.79 1020.83 1020.99 1021.27 1021.67 1022.16 1022.68 1023.20 1023.66 1024.03 1024.29 1024.43 1024.49 1024.48
1016.60 1016.75 1016.86 1016.92 1016.95 1016.97 1017.01 1017.08 1017.22 1017.42 1017.68 1017.98 1018.32 1018.66 1019.01 1019.34 1019.66 1019.98 1020.30 1020.62 1020.93 1021.22 1021.45 1021.62 1021.70 1021.69 1021.60 1021.47 1021.32 1021.23 1021.22 1021.33 1021.58 1021.95 1022.43 1022.96 1023.49 1023.98 1024.38 1024.67 1024.85 1024.93 1024.94
1016.70 1016.89 1017.03 1017.13 1017.21 1017.28 1017.38 1017.52 1017.71 1017.96 1018.26 1018.58 1018.92 1019.26 1019.58 1019.90 1020.21 1020.53 1020.85 1021.19 1021.52 1021.83 1022.09 1022.28 1022.38 1022.38 1022.29 1022.14 1021.98 1021.84 1021.79 1021.85 1022.05 1022.37 1022.81 1023.30 1023.81 1024.28 1024.68 1024.97 1025.17 1025.27 1025.29
1016.79 1017.01 1017.19 1017.33 1017.45 1017.59 1017.76 1017.98 1018.25 1018.57 1018.92 1019.29 1019.64 1019.98 1020.29 1020.57 1020.85 1021.14 1021.44 1021.76 1022.09 1022.42 1022.70 1022.92 1023.05 1023.09 1023.02 1022.89 1022.73 1022.58 1022.50 1022.51 1022.64 1022.90 1023.26 1023.69 1024.14 1024.56 1024.93 1025.21 1025.39 1025.50 1025.53
1016.87 1017.12 1017.33 1017.50 1017.68 1017.88 1018.13 1018.44 1018.80 1019.20 1019.62 1020.03 1020.42 1020.75 1021.04 1021.30 1021.53 1021.77 1022.03 1022.31 1022.62 1022.94 1023.23 1023.48 1023.65 1023.73 1023.71 1023.62 1023.48 1023.34 1023.24 1023.22 1023.30 1023.48 1023.76 1024.10 1024.47 1024.82 1025.13 1025.37 1025.54 1025.64 1025.68
1016.96 1017.22 1017.45 1017.66 1017.88 1018.14 1018.47 1018.86 1019.31 1019.79 1020.28 1020.75 1021.15 1021.50 1021.77 1021.98 1022.17 1022.35 1022.55 1022.79 1023.06 1023.35 1023.65 1023.91 1024.12 1024.24 1024.28 1024.24 1024.15 1024.04 1023.95 1023.91 1023.94 1024.06 1024.25 1024.50 1024.78 1025.06 1025.30 1025.49 1025.63 1025.71 1025.75
1017.05 1017.32 1017.56 1017.80 1018.06 1018.37 1018.76 1019.22 1019.74 1020.30 1020.84 1021.35 1021.78 1022.12 1022.38 1022.56 1022.70 1022.83 1022.97 1023.15 1023.38 1023.65 1023.93 1024.21 1024.44 1024.61 1024.71 1024.73 1024.69 1024.61 1024.54 1024.49 1024.50 1024.56 1024.69 1024.86 1025.06 1025.26 1025.44 1025.58 1025.68 1025.74 1025.77
1017.14 1017.42 1017.68 1017.93 1018.22 1018.57 1019.01 1019.52 1020.09 1020.68 1021.26 1021.79 1022.23 1022.58 1022.82 1022.98 1023.08 1023.17 1023.27 1023.41 1023.60 1023.84 1024.11 1024.39 1024.64 1024.85 1024.99 1025.06 1025.07 1025.04 1024.99 1024.95 1024.94 1024.97 1025.05 1025.16 1025.29 1025.43 1025.55 1025.65 1025.72 1025.76 1025.78
1017.23 1017.52 1017.79 1018.06 1018.37 1018.76 1019.21 1019.75 1020.33 1020.94 1021.53 1022.06 1022.50 1022.84 1023.07 1023.22 1023.30 1023.37 1023.45 1023.56 1023.73 1023.96 1024.22 1024.50 1024.76 1024.99 1025.16 1025.27 1025.32 1025.32 1025.30 1025.28 1025.27 1025.29 1025.33 1025.40 1025.49 1025.58 1025.66 1025.72 1025.76 1025.78 1025.79
1017.30 1017.61 1017.89 1018.19 1018.53 1018.93 1019.40 1019.93 1020.51 1021.10 1021.67 1022.18 1022.60 1022.92 1023.15 1023.29 1023.38 1023.45 1023.54 1023.66 1023.83 1024.05 1024.31 1024.58 1024.85 1025.09 1025.28 1025.41 1025.48 1025.51 1025.51 1025.50 1025.50 1025.51 1025.55 1025.60 1025.66 1025.72 1025.78 1025.82 1025.84 1025.84 1025.84
1017.33 1017.67 1017.99 1018.32 1018.68 1019.10 1019.57 1020.08 1020.63 1021.18 1021.71 1022.18 1022.57 1022.87 1023.10 1023.25 1023.36 1023.46 1023.57 1023.72 1023.91 1024.15 1024.41 1024.69 1024.95 1025.18 1025.37 1025.50 1025.59 1025.63 1025.64 1025.65 1025.66 1025.67 1025.71 1025.76 1025.81 1025.87 1025.91 1025.94 1025.95 1025.94 1025.93
1017.31 1017.68 1018.05 1018.43 1018.83 1019.26 1019.72 1020.22 1020.73 1021.23 1021.70 1022.11 1022.47 1022.75 1022.97 1023.14 1023.29 1023.43 1023.59 1023.78 1024.01 1024.26 1024.54 1024.81 1025.07 1025.29 1025.46 1025.58 1025.66 1025.70 1025.72 1025.74 1025.76 1025.79 1025.83 1025.89 1025.95 1026.01 1026.05 1026.08 1026.09 1026.08 1026.06
1017.21 1017.63 1018.06 1018.49 1018.93 1019.39 1019.86 1020.34 1020.81 1021.25 1021.67 1022.03 1022.34 1022.60 1022.82 1023.02 1023.20 1023.39 1023.60 1023.84 1024.11 1024.39 1024.68 1024.95 1025.19 1025.39 1025.54 1025.65 1025.71 1025.74 1025.76 1025.78 1025.81 1025.86 1025.92 1025.99 1026.07 1026.14 1026.19 1026.23 1026.24 1026.23 1026.21
1017.00 1017.48 1017.97 1018.47 1018.96 1019.46 1019.95 1020.41 1020.85 1021.26 1021.62 1021.94 1022.22 1022.46 1022.68 1022.89 1023.11 1023.34 1023.60 1023.88 1024.18 1024.49 1024.78 1025.05 1025.28 1025.45 1025.58 1025.66 1025.71 1025.73 1025.75 1025.77 1025.81 1025.88 1025.96 1026.06 1026.15 1026.24 1026.31 1026.36 1026.38 1026.38 1026.36
1016.69 1017.21 1017.76 1018.31 1018.87 1019.41 1019.92 1020.40 1020.83 1021.22 1021.55 1021.84 1022.09 1022.32 1022.54 1022.77 1023.01 1023.27 1023.56 1023.87 1024.20 1024.51 1024.81 1025.07 1025.28 1025.43 1025.54 1025.60 1025.64 1025.65 1025.68 1025.71 1025.77 1025.85 1025.96 1026.07 1026.19 1026.30 1026.39 1026.46 1026.49 1026.50 1026.49
1016.24 1016.79 1017.38 1017.99 1018.60 1019.19 1019.74 1020.24 1020.69 1021.07 1021.40 1021.69 1021.93 1022.16 1022.38 1022.62 1022.88 1023.16 1023.47 1023.80 1024.12 1024.44 1024.73 1024.97 1025.17 1025.31 1025.41 1025.46 1025.50 1025.52 1025.56 1025.61 1025.69 1025.79 1025.92 1026.05 1026.19 1026.31 1026.42 1026.50 1026.55 1026.57 1026.57
1015.66 1016.22 1016.83 1017.47 1018.12 1018.75 1019.34 1019.88 1020.36 1020.77 1021.13 1021.43 1021.69 1021.94 1022.17 1022.43 1022.70 1022.99 1023.30 1023.63 1023.95 1024.26 1024.53 1024.77 1024.95 1025.09 1025.19 1025.25 1025.30 1025.35 1025.40 1025.48 1025.58 1025.71 1025.85 1026.00 1026.15 1026.29 1026.40 1026.49 1026.55 1026.58 1026.59
1014.97 1015.50 1016.10 1016.75 1017.41 1018.08 1018.71 1019.30 1019.82 1020.28 1020.68 1021.03 1021.34 1021.61 1021.89 1022.16 1022.45 1022.75 1023.06 1023.38 1023.69 1023.99 1024.25 1024.48 1024.67 1024.81 1024.92 1025.01 1025.08 1025.16 1025.25 1025.36 1025.48 1025.63 1025.79 1025.95 1026.10 1026.23 1026.34 1026.43 1026.49 1026.52 1026.54
1014.19 1014.66 1015.22 1015.84 1016.51 1017.19 1017.85 1018.48 1019.07 1019.59 1020.06 1020.48 1020.85 1021.19 1021.50 1021.81 1022.13 1022.44 1022.76 1023.08 1023.38 1023.67 1023.93 1024.16 1024.35 1024.51 1024.65 1024.77 1024.88 1025.00 1025.12 1025.26 1025.41 1025.58 1025.74 1025.89 1026.04 1026.16 1026.26 1026.34 1026.39 1026.42 1026.43
1013.38 1013.77 1014.26 1014.83 1015.47 1016.14 1016.83 1017.50 1018.15 1018.75 1019.29 1019.79 1020.25 1020.66 1021.04 1021.40 1021.75 1022.09 1022.43 1022.75 1023.05 1023.34 1023.60 1023.84 1024.05 1024.24 1024.42 1024.58 1024.73 1024.89 1025.05 1025.21 1025.38 1025.55 1025.71 1025.86 1025.98 1026.09 1026.17 1026.22 1026.26 1026.27 1026.28
1012.61 1012.90 1013.31 1013.81 1014.40 1015.06 1015.75 1016.45 1017.14 1017.81 1018.44 1019.03 1019.57 1020.07 1020.53 1020.96 1021.36 1021.73 1022.09 1022.42 1022.74 1023.04 1023.31 1023.56 1023.80 1024.02 1024.23 1024.43 1024.62 1024.81 1025.00 1025.19 1025.37 1025.54 1025.69 1025.81 1025.92 1025.99 1026.04 1026.07 1026.09 1026.09 1026.08
1011.99 1012.18 1012.49 1012.91 1013.44 1014.06 1014.73 1015.45 1016.18 1016.90 1017.60 1018.27 1018.90 1019.48 1020.01 1020.50 1020.96 1021.37 1021.76 1022.12 1022.45 1022.76 1023.05 1023.32 1023.58 1023.82 1024.06 1024.29 1024.52 1024.74 1024.95 1025.15 1025.33 1025.49 1025.62 1025.73 1025.81 1025.86 1025.88 1025.89 1025.88 1025.87 1025.85
1011.57 1011.67 1011.89 1012.24 1012.70 1013.27 1013.91 1014.62 1015.37 1016.12 1016.87 1017.60 1018.29 1018.93 1019.53 1020.07 1020.57 1021.02 1021.44 1021.81 1022.16 1022.48 1022.78 1023.07 1023.34 1023.61 1023.87 1024.12 1024.36 1024.60 1024.82 1025.03 1025.20 1025.36 1025.48 1025.56 1025.62 1025.65 1025.65 1025.64 1025.62 1025.59 1025.56
1011.41 1011.44 1011.59 1011.87 1012.27 1012.78 1013.38 1014.06 1014.79 1015.55 1016.32 1017.07 1017.79 1018.47 1019.10 1019.68 1020.20 1020.68 1021.11 1021.50 1021.85 1022.17 1022.48 1022.77 1023.05 1023.32 1023.59 1023.85 1024.10 1024.34 1024.56 1024.77 1024.94 1025.09 1025.20 1025.27 1025.32 1025.33 1025.33 1025.31 1025.28 1025.24 1025.21
Thickness
5768 5765 5762 5759 5756 5754 5751 5749 5747 5745 5743 5741 5740 5739 5737 5736 5735 5733 5731 5730 5728 5727 5726 5723 5722 5721 5719 5718 5717 5715 5712 5709 5703 5702 5704 5704 5703 5702 5701 5699 5698 5695 5693
5768 5764 5760 5757 5754 5751 5748 5746 5744 5742 5740 5738 5737 5735 5734 5732 5731 5729 5727 5726 5724 5722 5720 5718 5717 5716 5714 5712 5710 5708 5706 5704 5700 5695 5695 5695 5695 5694 5692 5691 5689 5687 5684
5766 5762 5758 5754 5750 5747 5744 5742 5740 5738 5736 5735 5733 5731 5729 5728 5726 5724 5723 5721 5719 5718 5715 5713 5712 5710 5708 5706 5704 5702 5700 5699 5696 5691 5688 5688 5686 5684 5682 5680 5679 5676 5674
5765 5759 5754 5750 5747 5744 5741 5738 5736 5734 5732 5730 5728 5726 5725 5723 5721 5719 5718 5716 5714 5712 5710 5708 5706 5705 5702 5700 5698 5695 5693 5691 5688 5684 5680 5678 5676 5675 5672 5668 5666 5664 5662
5762 5756 5752 5748 5744 5741 5737 5734 5732 5729 5727 5725 5722 5721 5719 5718 5716 5714 5712 5710 5708 5705 5703 5701 5700 5698 5697 5694 5691 5687 5685 5682 5679 5675 5671 5668 5666 5664 5661 5658 5655 5653 5650
5759 5753 5749 5744 5740 5736 5733 5730 5727 5724 5721 5719 5716 5714 5712 5710 5709 5708 5706 5703 5701 5697 5694 5692 5691 5689 5686 5684 5682 5679 5677 5673 5669 5666 5662 5658 5655 5653 5652 5650 5645 5642 5638
5755 5750 5745 5740 5736 5732 5729 5724 5720 5717 5714 5711 5708 5706 5703 5701 5701 5699 5698 5695 5691 5688 5686 5684 5682 5679 5676 5674 5671 5669 5666 5663 5661 5656 5652 5648 5646 5644 5642 5639 5635 5632 5628
5751 5746 5741 5736 5732 5727 5723 5718 5714 5711 5707 5704 5701 5698 5696 5694 5692 5691 5689 5686 5682 5679 5677 5674 5671 5668 5666 5664 5661 5658 5654 5652 5649 5646 5643 5639 5638 5636 5634 5631 5627 5622 5617
5746 5741 5737 5733 5727 5722 5717 5712 5708 5704 5700 5696 5692 5690 5688 5685 5685 5683 5681 5677 5673 5669 5667 5664 5661 5658 5656 5654 5651 5647 5644 5641 5638 5636 5634 5631 5628 5626 5624 5621 5616 5611 5605
5741 5737 5733 5728 5723 5716 5711 5706 5701 5697 5692 5688 5684 5681 5679 5677 5675 5674 5672 5668 5664 5660 5657 5654 5651 5648 5646 5644 5640 5637 5633 5629 5627 5625 5623 5620 5617 5615 5613 5610 5605 5599 5593
5735 5731 5726 5721 5716 5711 5706 5701 5696 5690 5685 5681 5676 5673 5670 5668 5666 5665 5662 5659 5655 5650 5647 5643 5641 5639 5637 5634 5631 5628 5624 5621 5617 5614 5611 5608 5606 5603 5600 5597 5594 5589 5583
5727 5722 5717 5712 5709 5704 5699 5693 5688 5683 5678 5672 5668 5664 5661 5658 5657 5655 5652 5650 5646 5642 5637 5634 5631 5629 5627 5625 5622 5619 5616 5612 5608 5603 5599 5596 5592 5589 5587 5585 5582 5578 5574
5719 5712 5707 5703 5699 5694 5690 5684 5679 5674 5669 5664 5659 5655 5650 5648 5647 5645 5642 5640 5637 5633 5629 5626 5623 5620 5617 5615 5612 5609 5606 5601 5597 5592 5587 5583 5580 5578 5576 5573 5569 5565 5562
5709 5703 5698 5693 5688 5683 5679 5675 5670 5666 5660 5655 5650 5646 5642 5639 5636 5634 5631 5629 5627 5623 5619 5616 5614 5611 5608 5604 5601 5597 5594 5590 5586 5580 5575 5572 5569 5566 5562 5559 5554 5550 5546
5700 5694 5688 5683 5678 5672 5667 5662 5659 5655 5653 5648 5643 5639 5634 5630 5627 5625 5622 5619 5616 5613 5610 5606 5603 5599 5595 5591 5588 5584 5581 5578 5574 5569 5564 5560 5556 5553 5549 5545 5541 5537 5532
5691 5685 5679 5674 5668 5663 5658 5652 5648 5646 5643 5640 5637 5632 5627 5624 5620 5617 5614 5611 5608 5604 5600 5594 5590 5586 5582 5578 5574 5571 5568 5565 5561 5557 5553 5549 5545 5541 5537 5533 5529 5525 5520
5683 5677 5671 5665 5660 5654 5650 5646 5640 5635 5633 5630 5627 5623 5620 5616 5612 5609 5605 5602 5598 5595 5589 5583 5579 5575 5571 5567 5563 5560 5556 5553 5550 5547 5543 5539 5535 5531 5527 5523 5519 5515 5511
5675 5670 5664 5658 5653 5647 5642 5638 5634 5629 5623 5618 5616 5613 5610 5607 5603 5600 5597 5593 5587 5584 5579 5574 5570 5566 5562 5558 5554 5550 5546 5543 5540 5536 5533 5529 5525 5522 5518 5514 5510 5506 5502
5666 5661 5656 5650 5645 5640 5635 5629 5624 5620 5615 5610 5606 5603 5601 5598 5594 5590 5587 5583 5578 5573 5569 5565 5562 5558 5554 5550 5546 5542 5538 5534 5530 5527 5523 5520 5517 5513 5509 5506 5502 5499 5495
5657 5653 5649 5643 5638 5632 5627 5622 5617 5612 5607 5603 5599 5595 5592 5589 5585 5581 5578 5574 5569 5565 5561 5558 5554 5551 5547 5543 5539 5534 5530 5526 5522 5519 5515 5512 5509 5505 5502 5498 5495 5491 5487
5648 5644 5640 5635 5630 5626 5621 5616 5611 5606 5601 5596 5592 5589 5586 5581 5577 5574 5570 5566 5562 5558 5554 5550 5547 5543 5539 5535 5531 5527 5522 5518 5514 5511 5508 5505 5501 5498 5495 5491 5488 5484 5481
5640 5635 5631 5627 5622 5618 5614 5609 5604 5599 5595 5590 5585 5582 5579 5574 5570 5567 5563 5559 5556 5552 5548 5544 5540 5536 5533 5528 5524 5520 5515 5511 5508 5504 5501 5498 5494 5491 5488 5485 5481 5478 5475
5631 5627 5623 5619 5615 5611 5606 5602 5597 5593 5589 5585 5580 5576 5571 5567 5564 5560 5556 5553 5549 5546 5542 5538 5533 5529 5526 5522 5518 5514 5510 5505 5502 5499 5495 5491 5488 5485 5482 5479 5476 5473 5470
5624 5620 5615 5611 5608 5603 5599 5595 5592 5588 5583 5579 5575 5570 5565 5562 5558 5554 5550 5547 5543 5539 5535 5531 5527 5523 5519 5515 5512 5508 5504 5501 5497 5494 5490 5486 5483 5480 5477 5474 5471 5469 5466
5616 5613 5609 5605 5602 5597 5593 5590 5586 5582 5578 5574 5570 5565 5560 5556 5552 5549 5545 5541 5537 5533 5529 5525 5521 5517 5514 5510 5506 5502 5499 5496 5492 5489 5485 5482 5478 5475 5472 5469 5466 5464 5461
5609 5606 5603 5599 5596 5592 5587 5583 5580 5576 5572 5568 5564 5560 5556 5551 5547 5543 5539 5535 5531 5527 5523 5519 5515 5512 5508 5505 5501 5497 5494 5491 5487 5484 5480 5476 5473 5470 5467 5464 5462 5460 5458